When you browse on this site, cookies collect data to enhance your experience and personalize the content and advertising you see.
Visit our Privacy Policy to learn more. By continuing to use the site, you agree to this use of cookies and data.
  • In United Kingdom
  • List of Countries
  • For 7 days
  • Water Temperature
  • Satellite Maps
  • Weather Map
  • Weather Widgets
  • user-avatar
    Login

    Hourly Weather Ciecholewy

    Today, 20 February, Wednesday

    Time Temperature Precipitation Wind Pressure Humidity
    00:00 +3°C° 0.1 mm 5 mps 749 mmHg 79%
    01:00 +3°C° 0.1 mm 5 mps 749 mmHg 79%
    02:00 +3°C° 0.1 mm 6 mps 749 mmHg 79%
    03:00 +3°C° 0.1 mm 6 mps 749 mmHg 79%
    04:00 +3°C° 0.1 mm 6 mps 750 mmHg 78%
    05:00 +3°C° 0.1 mm 6 mps 750 mmHg 78%
    06:00 +2°C° 0.1 mm 6 mps 750 mmHg 78%
    07:00 +2°C° 0.1 mm 6 mps 750 mmHg 78%
    08:00 +3°C° 0 mm 6 mps 751 mmHg 76%
    09:00 +3°C° 0 mm 7 mps 751 mmHg 74%
    10:00 +3°C° 0 mm 7 mps 752 mmHg 72%
    11:00 +3°C° 0 mm 7 mps 752 mmHg 71%
    12:00 +4°C° 0 mm 7 mps 752 mmHg 70%
    13:00 +4°C° 0 mm 7 mps 753 mmHg 69%
    14:00 +4°C° 0 mm 7 mps 753 mmHg 70%
    15:00 +4°C° 0 mm 6 mps 754 mmHg 72%
    16:00 +3°C° 0 mm 6 mps 754 mmHg 73%
    17:00 +3°C° 0 mm 5 mps 755 mmHg 76%
    18:00 +3°C° 0 mm 5 mps 755 mmHg 78%
    19:00 +4°C° 0 mm 4 mps 755 mmHg 81%
    20:00 +3°C° 0 mm 4 mps 756 mmHg 83%
    21:00 +3°C° 0 mm 4 mps 756 mmHg 86%
    22:00 +3°C° 0 mm 3 mps 756 mmHg 88%
    23:00 +3°C° 0 mm 3 mps 756 mmHg 90%

    Tomorrow, 21 February, Thursday

    Time Temperature Precipitation Wind Pressure Humidity
    00:00 +4°C° 0 mm 2 mps 757 mmHg 92%
    01:00 +3°C° 0 mm 2 mps 757 mmHg 93%
    02:00 +3°C° 0.2 mm 2 mps 756 mmHg 94%
    03:00 +3°C° 0.2 mm 2 mps 756 mmHg 95%
    04:00 +4°C° 0.2 mm 2 mps 756 mmHg 96%
    05:00 +4°C° 0.3 mm 2 mps 755 mmHg 95%
    06:00 +3°C° 0.3 mm 3 mps 755 mmHg 95%
    07:00 +3°C° 0.3 mm 3 mps 755 mmHg 95%
    08:00 +4°C° 1 mm 3 mps 755 mmHg 94%
    09:00 +4°C° 1 mm 4 mps 755 mmHg 92%
    10:00 +4°C° 1 mm 4 mps 754 mmHg 91%
    11:00 +5°C° 0.4 mm 4 mps 754 mmHg 90%
    12:00 +5°C° 0.4 mm 4 mps 754 mmHg 89%
    13:00 +5°C° 0.4 mm 4 mps 754 mmHg 88%
    14:00 +5°C° 0.7 mm 4 mps 754 mmHg 87%
    15:00 +5°C° 0.7 mm 4 mps 753 mmHg 87%
    16:00 +5°C° 0.7 mm 4 mps 753 mmHg 87%
    17:00 +5°C° 0.2 mm 4 mps 754 mmHg 89%
    18:00 +5°C° 0.2 mm 4 mps 754 mmHg 90%
    19:00 +5°C° 0.2 mm 4 mps 754 mmHg 92%
    20:00 +2°C° 0.3 mm 5 mps 755 mmHg 91%
    21:00 +1°C° 0.3 mm 5 mps 756 mmHg 90%
    22:00 -2°C° 0.3 mm 6 mps 756 mmHg 89%
    23:00 -2°C° 0.3 mm 6 mps 757 mmHg 88%

    Day after tomorrow, 22 February, Friday

    Time Temperature Precipitation Wind Pressure Humidity
    00:00 -3°C° 0.3 mm 6 mps 758 mmHg 86%
    01:00 -4°C° 0.3 mm 6 mps 759 mmHg 84%
    02:00 -4°C° 0 mm 5 mps 760 mmHg 79%
    03:00 -5°C° 0 mm 5 mps 761 mmHg 75%
    04:00 -4°C° 0 mm 4 mps 762 mmHg 70%
    05:00 -4°C° 0 mm 4 mps 764 mmHg 69%
    06:00 -4°C° 0 mm 4 mps 765 mmHg 68%
    07:00 -5°C° 0 mm 4 mps 766 mmHg 67%
    08:00 -4°C° 0 mm 4 mps 767 mmHg 62%
    09:00 -4°C° 0 mm 4 mps 768 mmHg 58%
    10:00 -4°C° 0 mm 4 mps 769 mmHg 53%
    11:00 -4°C° 0 mm 4 mps 769 mmHg 49%
    12:00 -2°C° 0 mm 3 mps 770 mmHg 45%
    13:00 -2°C° 0 mm 3 mps 770 mmHg 42%
    14:00 -2°C° 0 mm 3 mps 770 mmHg 43%
    15:00 -2°C° 0 mm 2 mps 771 mmHg 44%
    16:00 -2°C° 0 mm 2 mps 771 mmHg 45%
    17:00 -3°C° 0 mm 2 mps 771 mmHg 49%
    18:00 -1°C° 0 mm 1 mps 771 mmHg 53%
    19:00 -2°C° 0 mm 1 mps 772 mmHg 57%
    20:00 -2°C° 0 mm 1 mps 772 mmHg 57%
    21:00 -2°C° 0 mm 1 mps 772 mmHg 57%
    22:00 -3°C° 0 mm 0 mps 772 mmHg 58%
    23:00 -2°C° 0 mm 1 mps 772 mmHg 57%

    23 February, Saturday

    Time Temperature Precipitation Wind Pressure Humidity
    00:00 -2°C° 0 mm 1 mps 772 mmHg 56%
    01:00 -2°C° 0 mm 1 mps 772 mmHg 56%
    02:00 -2°C° 0 mm 1 mps 772 mmHg 56%
    03:00 -2°C° 0 mm 1 mps 771 mmHg 56%
    04:00 -1°C° 0 mm 1 mps 771 mmHg 55%
    05:00 -1°C° 0 mm 1 mps 771 mmHg 55%
    06:00 -1°C° 0 mm 1 mps 771 mmHg 56%
    07:00 -1°C° 0 mm 1 mps 771 mmHg 56%
    08:00 -2°C° 0 mm 2 mps 771 mmHg 52%
    09:00 -1°C° 0 mm 2 mps 770 mmHg 49%
    10:00 +1°C° 0 mm 2 mps 770 mmHg 46%
    11:00 +1°C° 0 mm 2 mps 770 mmHg 47%
    12:00 +1°C° 0 mm 2 mps 770 mmHg 49%
    13:00 +1°C° 0 mm 2 mps 769 mmHg 51%
    14:00 +2°C° 0 mm 2 mps 769 mmHg 53%
    15:00 +2°C° 0 mm 2 mps 769 mmHg 55%
    16:00 +2°C° 0 mm 2 mps 768 mmHg 57%
    17:00 +1°C° 0 mm 2 mps 768 mmHg 63%
    18:00 +1°C° 0 mm 2 mps 768 mmHg 69%
    19:00 -1°C° 0 mm 2 mps 768 mmHg 74%
    20:00 -1°C° 0 mm 2 mps 767 mmHg 81%
    21:00 -1°C° 0 mm 2 mps 767 mmHg 87%
    22:00 -1°C° 0 mm 3 mps 767 mmHg 94%
    23:00 -1°C° 0 mm 3 mps 767 mmHg 94%

    24 February, Sunday

    Time Temperature Precipitation Wind Pressure Humidity
    00:00 0°C° 0 mm 3 mps 767 mmHg 95%
    01:00 0°C° 0 mm 3 mps 767 mmHg 96%
    02:00 0°C° 0 mm 3 mps 767 mmHg 96%
    03:00 +1°C° 0 mm 3 mps 767 mmHg 96%
    04:00 +1°C° 0 mm 3 mps 767 mmHg 96%
    05:00 +1°C° 0 mm 3 mps 767 mmHg 96%
    06:00 +1°C° 0 mm 3 mps 767 mmHg 96%
    07:00 +2°C° 0 mm 2 mps 767 mmHg 95%
    08:00 +2°C° 0 mm 2 mps 768 mmHg 93%
    09:00 +3°C° 0 mm 2 mps 768 mmHg 90%
    10:00 +3°C° 0 mm 2 mps 769 mmHg 87%
    11:00 +4°C° 0 mm 2 mps 769 mmHg 85%
    12:00 +4°C° 0 mm 2 mps 769 mmHg 83%
    13:00 +4°C° 0 mm 2 mps 769 mmHg 80%
    14:00 +5°C° 0 mm 1 mps 769 mmHg 82%
    15:00 +5°C° 0 mm 1 mps 769 mmHg 84%
    16:00 +4°C° 0 mm 1 mps 769 mmHg 86%
    17:00 +4°C° 0 mm 1 mps 769 mmHg 88%
    18:00 +3°C° 0 mm 1 mps 769 mmHg 90%
    19:00 +2°C° 0 mm 1 mps 769 mmHg 92%
    20:00 +2°C° 0 mm 1 mps 769 mmHg 91%
    21:00 +2°C° 0 mm 1 mps 769 mmHg 91%
    22:00 +2°C° 0 mm 1 mps 769 mmHg 91%
    23:00 +2°C° 0 mm 1 mps 770 mmHg 91%

    25 February, Monday

    Time Temperature Precipitation Wind Pressure Humidity
    00:00 +2°C° 0 mm 1 mps 770 mmHg 91%
    01:00 +2°C° 0 mm 1 mps 770 mmHg 91%
    02:00 +2°C° 0 mm 1 mps 769 mmHg 92%
    03:00 +2°C° 0 mm 2 mps 769 mmHg 92%
    04:00 +2°C° 0 mm 2 mps 769 mmHg 93%
    05:00 +2°C° 0 mm 2 mps 769 mmHg 94%
    06:00 +2°C° 0 mm 2 mps 769 mmHg 95%
    07:00 +1°C° 0 mm 3 mps 769 mmHg 96%
    08:00 +2°C° 0 mm 3 mps 769 mmHg 95%
    09:00 +2°C° 0 mm 3 mps 769 mmHg 95%
    10:00 +3°C° 0 mm 3 mps 769 mmHg 95%
    11:00 +4°C° 0 mm 4 mps 769 mmHg 90%
    12:00 +5°C° 0 mm 4 mps 769 mmHg 86%
    13:00 +6°C° 0 mm 5 mps 769 mmHg 82%
    14:00 +5°C° 0 mm 5 mps 769 mmHg 79%
    15:00 +3°C° 0 mm 5 mps 769 mmHg 77%
    16:00 +3°C° 0 mm 5 mps 769 mmHg 74%
    17:00 +2°C° 0 mm 5 mps 769 mmHg 77%
    18:00 +1°C° 0 mm 4 mps 769 mmHg 79%
    19:00 0°C° 0 mm 4 mps 769 mmHg 81%
    20:00 +1°C° 0 mm 3 mps 769 mmHg 81%
    21:00 +1°C° 0 mm 3 mps 769 mmHg 81%
    22:00 0°C° 0 mm 3 mps 769 mmHg 81%
    23:00 0°C° 0 mm 3 mps 769 mmHg 80%
    Show more